Left ArrowRight Arrow

44.89941, -97.11507

Hourly Observations for June 17, 2024

Temp ( °F °C ) Dew Point ( °F °C ) Humidity (%) Winds ( mph kmh ) Pressure ( in mb ) Visibility ( mi km ) Precip ( " mm )
12:53 am 00:53 Mostly Clear 65 18.3 43 6.1 45 45 NE 9 15 29.76 1008 10 16 0.00 0.00
1:53 am 01:53 Partly Cloudy 65 18.3 43 6.1 45 45 ENE 8 13 29.75 1008 10 16 0.00 0.00
2:53 am 02:53 Cloudy 64 17.8 46 7.8 52 52 NNE 8 13 29.78 1009 10 16 0.00 0.00
3:53 am 03:53 Cloudy with Light Rain 60 15.6 53 11.7 78 78 E 3 6 29.83 1010 10 16 0.03 0.76
4:53 am 04:53 Cloudy with Rain 58 14.4 54 12.2 87 87 SSE 6 9 29.84 1011 10 16 0.04 1.02
5:06 am 05:06 Cloudy with Nearby Thunderstorms 59 15 53 11.7 81 81 SE 8 13 29.82 1010 10 16 0.01 0.13
5:21 am 05:21 Cloudy with Light Rain 59 15 53 11.7 81 81 SSE 7 11 29.83 1010 10 16 0.02 0.51
5:53 am 05:53 Cloudy with Light Rain 58 14.4 53 11.7 84 84 SE 9 15 29.82 1010 10 16 0.03 0.76
6:53 am 06:53 Cloudy 56 13.3 52 11.1 87 87 ESE 10 17 29.80 1009 10 16 0.01 0.25
7:53 am 07:53 Cloudy 56 13.3 50 10 80 80 ESE 5 7 29.80 1009 10 16 0.01 0.13
8:53 am 08:53 Mostly Sunny 57 13.9 49 9.4 74 74 E 6 9 29.80 1009 10 16 0.01 0.13
9:53 am 09:53 Partly Cloudy 57 13.9 49 9.4 74 74 E 7 11 29.80 1009 10 16 0.01 0.25
10:51 am 10:51 Cloudy with Light Rain 57 14 52 11 82 82 E 7 11 29.78 1009 10 16 0.01 0.13
10:53 am 10:53 Cloudy with Light Rain 57 13.9 52 11.1 83 83 ESE 6 9 29.80 1009 10 16 0.01 0.13
11:29 am 11:29 Cloudy 57 13.9 53 11.7 87 87 ESE 7 11 29.78 1009 10 16 0.01 0.13
11:53 am 11:53 Cloudy 58 14.4 54 12.2 87 87 ESE 9 15 29.78 1009 10 16 0.01 0.13
12:06 pm 12:06 Cloudy 58 14.4 54 12.2 87 87 ESE 7 11 29.78 1008 10 16 0.00 0.00
12:22 pm 12:22 Cloudy 58 14.4 54 12.2 87 87 ESE 6 9 29.80 1009 10 16 0.00 0.00
12:53 pm 12:53 Cloudy 58 14.4 54 12.2 87 87 ESE 5 7 29.78 1009 10 16 0.00 0.00
1:53 pm 13:53 Cloudy 58 14.4 54 12.2 87 87 NE 6 9 29.75 1007 10 16 0.00 0.00
2:53 pm 14:53 Cloudy 62 16.7 57 13.9 84 84 NE 9 15 29.73 1007 10 16 0.00 0.00
3:53 pm 15:53 Cloudy 65 18.3 58 14.4 78 78 E 7 11 29.75 1007 10 16 0.00 0.00
4:20 pm 16:20 Cloudy 62 16.7 57 13.9 84 84 E 10 17 29.74 1007 10 16 0.00 0.00
4:53 pm 16:53 Cloudy 63 17.2 57 13.9 81 81 E 9 15 29.74 1007 10 16 0.00 0.00
5:21 pm 17:21 Cloudy 63 17.2 57 13.9 81 81 ENE 12 19 29.68 1005 10 16 0.00 0.00
5:53 pm 17:53 Cloudy 62 16.7 57 13.9 84 84 ENE 7 11 29.70 1006 10 16 0.00 0.00
6:53 pm 18:53 Cloudy 62 16.7 58 14.4 86 86 ENE 9 15 29.67 1005 10 16 0.01 0.13
7:53 pm 19:53 Cloudy 63 17.2 59 15 87 87 E 12 19 29.64 1004 10 16 0.00 0.00
8:20 pm 20:20 Cloudy 63 17.2 59 15 87 87 E 12 19 29.58 1002 10 16 0.00 0.00
8:53 pm 20:53 Cloudy with Light Rain 63 17.2 59 15 87 87 E 15 24 29.60 1002 10 16 0.01 0.13
9:53 pm 21:53 Cloudy 65 18.3 61 16.1 87 87 E 12 19 29.57 1002 10 16 0.01 0.13
10:53 pm 22:53 Cloudy 66 18.9 62 16.7 87 87 ESE 13 20 29.56 1001 10 16 0.00 0.00
11:53 pm 23:53 Mostly Cloudy 68 20 65 18.3 90 90 SE 15 24 29.51 999 10 16 0.00 0.00

Powered by Vaisala Xweather